Regional Weather Roundup
Issued by NWS Newport/Morehead, NC

Current Version | Previous Version | Graphics & Text | Print | Product List | Glossary Off
Versions: 1 2 3 4 5 6 7 8 9 10 11 12 13 14 15 16 17 18 19 20 21 22 23 24 25 26 27 28 29 30 31 32 33 34 35 36 37 38 39 40 41 42 43 44 45 46 47 48 49 50

000
ASUS42 KMHX 231013
RWRMHX
WEATHER ROUNDUP FOR EASTERN NORTH CAROLINA
NATIONAL WEATHER SERVICE NEWPORT/MOREHEAD CITY NC
500 AM EST THU FEB 23 2017

NOTE: "FAIR" INDICATES FEW OR NO CLOUDS BELOW 12,000 FEET
WITH NO SIGNIFICANT WEATHER AND/OR OBSTRUCTIONS TO VISIBILITY

NCZ015>017-031-032-045>047-102-103-231100-
NORTH COAST

CITY           SKY/WX    TMP DP  RH WIND       PRES   REMARKS
EDENTON        MOCLDY    54  51  90 CALM      29.94R
ELIZABETH CITY CLOUDY    55  52  89 CALM      29.94S
KITTY HAWK     NOT AVBL
MANTEO         CLOUDY    55  52  92 CALM      29.94S

$$

NCZ045>047-081-094-103-104-231100-
CENTRAL COAST

CITY           SKY/WX    TMP DP  RH WIND       PRES   REMARKS
FRISCO         CLOUDY    61  58  90 CALM      29.93S FOG

$$

NCZ095-097-098-100-101-231100-
SOUTHERN COAST

CITY           SKY/WX    TMP DP  RH WIND       PRES   REMARKS
BEAUFORT       CLOUDY    56  53  90 NE3       29.92S
CEDAR ISLAND   NOT AVBL
JACKSONVILLE   CLOUDY    56  54  93 CALM      29.91S
PINEY ISLAND   CLOUDY   N/A N/A N/A NE5       29.92S
WILMINGTON     CLOUDY    56  55  97 NE5       29.89S


$$

NCZ011>013-027>030-043-044-078>080-089-090>093-098-231100-
COASTAL PLAIN

CITY           SKY/WX    TMP DP  RH WIND       PRES   REMARKS
AHOSKIE          N/A     52  51  95 CALM      29.94R
CLINTON        MOCLDY    55  53  95 CALM      29.91F
ELIZABETHTOWN  CLOUDY    54  54  98 CALM      29.90S
GOLDSBORO      CLOUDY    53  53 100 CALM      29.90S
GREENVILLE     MOCLDY    52  52 100 CALM      29.95S
HAVELOCK       NOT AVBL
KENANSVILLE    NOT AVBL
KINSTON        CLOUDY    53  52  97 CALM      29.93S
NEW BERN       CLOUDY    52  50  93 CALM      29.93S
RICHLANDS      CLOUDY    52  51  97 NE3       29.92S
ROCKY MOUNT    CLOUDY    50  50 100 CALM      29.93S
WASHINGTON     CLOUDY    50  49  96 CALM      29.93S
WHITEVILLE     CLOUDY    54  52  93 CALM      29.89S

$$

AMZ130-135-150-152-154-156-158-170-250-252-270-ANZ085-086-088-633-658-670-231100-
MARINE OBSERVATIONS

STATION/POSITION TIME  TEMP    WIND        PRES    WAVE   SWELL
                       AIR SEA DIR/SP/G            HT/PER HT/PER
                 (UTC) (F)     (DEG/KT/KT) (MB)    (FT/S) (FT/S)
CHESAPEAKE LIGHT NOT AVBL
64 E VA BEACH    0950   58 54  170/  6/  6 1013.6    3/11   3/11
DUCK             0948   58 48  290/  2/  2 1013.3
2 E DUCK         0930      50                N/A     3/10   2/11
OREGON INLET     0942   56 54  110/  4/  6 1013.5
13E OREGON INLT  NOT AVBL
HATTERAS CG      0948   63 60   CALM  /  2 1013.1
DIAMOND BUOY     0950   68 74  180/ 14/ 16 1013.4    4/ 9   2/ 9
CAPE LOOKOUT     1000   67     150/  7/  7 1012.7
BEAUFORT LAB     0948   56 54  350/  2/  5 1012.2
30 SE NEW RVR IN 0908   68     120/ 10/ 12 1012.4
30 SE NEW RVR IN 0943      69                N/A     4/11   2/11
27 SE WRIGHTSVLE 0908   67 65  110/  8/ 12 1011.6
5 SE WRIGHTSVLE  0908   61 58   70/ 10/ 14 1011.7
225 S CAPE HAT   0950   67 70  110/ 19/ 25 1011.0    6/ 6   3/10
41 SE CHARLESTON 0950   70 70   90/ 16/ 17 1008.7    7/ 8   5/ 8

$$



USA.gov is the U.S. government's official web portal to all federal, state and local government web resources and services.